Weather Roundup
Issued by NWS

Home | Current Version | Previous Version | Graphics & Text | Print | Product List | Glossary Off
Versions: 1 2 3 4 5 6 7 8 9 10 11 12 13 14 15 16 17 18 19 20 21 22 23 24 25 26 27 28 29 30 31 32 33 34 35 36 37 38 39 40 41 42 43 44 45 46 47 48 49 50

000
NZUS93 KARX 232110
HRRWXR

CURRENT HOURLY OBSERVATIONS ACROSS
MUCH OF THE UPPER MISSISSIPPI VALLEY
NATIONAL WEATHER SERVICE LA CROSSE WI
400 PM CDT TUE MAY 23 2017


...SOUTHEAST MINNESOTA...


CITY           SKY/WX    TMP DP  RH WIND       PRES   REMARKS
ROCHESTER      LGT RAIN  49  48  97 N12       29.77S FOG
ROCHESTER/MAYO NOT AVBL
WINONA         CLOUDY    55  48  76 N5        29.75F
AUSTIN         DRIZZLE   54  46  76 NE10      29.77S
ALBERT LEA     LGT RAIN  52  52 100 CALM      29.78F
DODGE CENTER   LGT RAIN  50  48  93 N10       29.78S
PRESTON        CLOUDY    50  47  90 N9        29.76S
OWATONNA       RAIN      54  48  82 NE8       29.79S
FARIBAULT      PTSUNNY   55  48  76 N7        29.80S
$$

...ELSEWHERE IN MINNESOTA...


CITY           SKY/WX    TMP DP  RH WIND       PRES   REMARKS
MINNEAPOLIS    CLOUDY    60  45  57 NE10      29.80S
INTNL FALLS    CLOUDY    54  42  64 NE12G21   29.94F
DULUTH         PTSUNNY   56  47  71 E10       29.86S
RED WING       LGT RAIN  55  48  76 NE5       29.78S
REDWOOD FALLS  CLOUDY    59  42  53 VRB7G17   29.82S
MANKATO        LGT RAIN  54  47  77 N8        29.81S
WORTHINGTON    CLOUDY    54  47  77 N16       29.83F
FAIRMONT       CLOUDY    56  48  74 N15       29.80S
$$

...SOUTHWEST WISCONSIN...


CITY           SKY/WX    TMP DP  RH WIND       PRES   REMARKS
LA CROSSE      CLOUDY    60  51  72 N12       29.72S
PRAIRIE DU CHI CLOUDY    60  49  66 NW8G20    29.71S
BOSCOBEL       CLOUDY    62  52  69 NW9       29.70S
LONE ROCK      CLOUDY    62  52  69 S7        29.69F
PLATTEVILLE    PTSUNNY   59  53  79 SW5       29.71F
FORT MC COY    LGT RAIN  54  53  98 N6        29.72S
CAMP DOUGLAS   TSTM      55  54  94 NE9       29.70F
MAUSTON-NEW LI CLOUDY    61  54  77 N7        29.69S HAZE
VIROQUA        CLOUDY    54  53  97 MISG      29.72R
WIS DELLS      CLOUDY    61  50  66 SE6       29.70S
$$

...ELSEWHERE IN WISCONSIN...


CITY           SKY/WX    TMP DP  RH WIND       PRES   REMARKS
MILWAUKEE      CLOUDY    62  54  74 SE7       29.72S
MADISON        CLOUDY    62  50  64 VRB5      29.69F THUNDER
GREEN BAY      HVY RAIN  52  51  97 NE14      29.79R FOG
EAU CLAIRE     CLOUDY    57  45  64 N10       29.77R
BLACK RVR FLS  CLOUDY    61  46  57 E10G18    29.73S
MEDFORD        CLOUDY    55  45  69 NE10      29.77S
WAUSAU         CLOUDY    57  43  59 E10       29.75F
WIS RAPIDS     CLOUDY    58  46  64 E12G22    29.75S
MARSHFIELD     CLOUDY    58  45  62 NE14      29.74S
RICE LAKE      CLOUDY    55  47  73 N9        29.82S
$$

...NORTHEAST IOWA...


CITY           SKY/WX    TMP DP  RH WIND       PRES   REMARKS
WATERLOO       LGT RAIN  57  49  74 NW10      29.74F
DUBUQUE        CLOUDY    61  49  64 CALM      29.71F
DECORAH        CLOUDY    55  50  82 NW10      29.72S
MASON CITY     CLOUDY    54  46  74 NW13      29.78S
CHARLES CITY   MOSUNNY   54  50  87 N10       29.76S
OELWEIN        LGT RAIN  54  52  94 NW12      29.75S
$$

...ELSEWHERE IN IOWA...


CITY           SKY/WX    TMP DP  RH WIND       PRES   REMARKS
DES MOINES     PTSUNNY   61  46  57 N12       29.76F
IOWA CITY      CLOUDY    63  48  58 W9        29.73F
FORT DODGE     CLOUDY    55  46  71 NW7       29.79F
MARSHALLTOWN   CLOUDY    57  51  80 W7        29.75F
CEDAR RAPIDS   CLOUDY    60  47  61 NW15G25   29.71F
$$

...NORTHERN ILLINOIS...


CITY           SKY/WX    TMP DP  RH WIND       PRES   REMARKS
CHICAGO-OHARE  HVY RAIN  60  56  86 SW3       29.73S FOG
CHICAGO-MIDWAY CLOUDY    62  56  80 E7        29.72F
MOLINE         MOSUNNY   66  53  63 NW9       29.71F
ROCKFORD       LGT RAIN  58  55  90 W3        29.74S
PEORIA         LGT RAIN  61  58  90 NW5       29.73F
$$

NOTE: "FAIR" INDICATES FEW OR NO CLOUDS BELOW 12,000 FEET WITH NO
SIGNIFICANT WEATHER AND/OR OBSTRUCTIONS TO VISIBILITY. WIND
SPEEDS ARE IN MILES-PER-HOUR.




USA.gov is the U.S. government's official web portal to all federal, state and local government web resources and services.